Regional Weather Roundup
Issued by NWS

Home | Current Version | Previous Version | Text Only | Print | Product List | Glossary Off
Versions: 1 2 3 4 5 6 7 8 9 10 11 12 13 14 15 16 17 18 19 20 21 22 23 24 25 26 27 28 29 30 31 32 33 34 35 36 37 38 39 40 41 42 43 44 45 46 47 48 49 50

000
ASUS43 KIND 252009
RWRIN

WEATHER ROUNDUP FOR INDIANA
NATIONAL WEATHER SERVICE INDIANAPOLIS IN
400 PM EDT TUE JUL 25 2017

NOTE: "FAIR" INDICATES FEW OR NO CLOUDS BELOW 12,000 FEET WITH NO
SIGNIFICANT WEATHER AND/OR OBSTRUCTIONS TO VISIBILITY.

* - STATION DOES NOT REPORT WEATHER SUCH AS PRECIPITATION OR FOG.

+ - STATION NOT QUALITY CONTROLLED BY THE NATIONAL WEATHER SERVICE.
    USE DATA WITH CAUTION...ESPECIALLY DEWPOINT AND RELATIVE
    HUMIDITY OBSERVATIONS.

INZ001>003-010>013-019-020-252100-
NORTHWEST INDIANA

CITY           SKY/WX    TMP DP  RH WIND       PRES   REMARKS
GARY /AIRPORT/ MOSUNNY   81  52  36 SE8       30.19F
KNOX *+        SUNNY     77  55  47 E6        30.20F
LA PORTE +     SUNNY     77  56  47 E7        30.21F
MICHIGAN CITY+ SUNNY     79  54  41 SE8       30.21F
MONTICELLO +   SUNNY     78  57  48 E5        30.19S
RENSSELAER +   SUNNY     77  46  33 SE9       30.19S
VALPARAISO     SUNNY     80  57  45 E9        30.21F

$$

LMZ046-743>745-252100-
SOUTHERN LAKE MICHIGAN

STATION/POSITION TIME  TEMP    WIND        PRES    WAVE
                       AIR SEA DIR/SP/G            HT
                 (UTC) (F)     (DEG/KT/KT) (MB)    (FT)
BURNS HARBOR     1940   78     150/  7/ 13 1022.7F
MICHIGAN CITY    1940   76     130/  7/ 13   N/A
5NW MICH CITY    2000   76 75  170/  6/  8   N/A     1

$$

INZ004-005-014>016-021>024-252100-
NORTH CENTRAL INDIANA

CITY           SKY/WX    TMP DP  RH WIND       PRES   REMARKS
ELKHART        SUNNY     77  50  38 E7        30.21
GOSHEN         SUNNY     79  52  38 E8        30.22S
LOGANSPORT +   SUNNY     77  55  47 E9        30.20F
PERU/GRISSOM   SUNNY     77  57  50 E8        30.19F
ROCHESTER +    SUNNY     81  52  36 SE9       30.22R
SOUTH BEND     SUNNY     78  54  43 SE9       30.21F
WARSAW +       SUNNY     77  54  44 E7        30.22S

$$

INZ006>009-017-018-025>027-252100-
NORTHEAST INDIANA

CITY           SKY/WX    TMP DP  RH WIND       PRES   REMARKS
AUBURN +       SUNNY     77  52  41 CALM      30.23S
FORT WAYNE     MOSUNNY   78  58  49 E7        30.22F
HUNTINGTON +   SUNNY     75  57  53 SE8       30.21F
KENDALLVILLE + SUNNY     77  54  44 SE6       30.23S

$$

INZ028-029-035-036-043>045-051>053-252100-
WEST CENTRAL INDIANA

CITY           SKY/WX    TMP DP  RH WIND       PRES   REMARKS
GREENCASTLE +  SUNNY     79  59  50 SE3       30.18F
LAFAYETTE      SUNNY     79  61  53 E12       30.17F
TERRE HAUTE    SUNNY     82  65  56 VRB3      30.15F

$$

INZ030>032-037>040-046>048-054>057-064-065-252100-
CENTRAL INDIANA

CITY           SKY/WX    TMP DP  RH WIND       PRES   REMARKS
ANDERSON       SUNNY     77  55  47 MISG      30.20
CP ATTERBURY + SUNNY     79  59  50 NE6       30.18S
COLUMBUS       SUNNY     79  54  41 NE7       30.18R
FRANKFORT +    CLOUDY    80  64  57 SE9       30.21S
GREENWOOD *+   SUNNY    N/A N/A N/A E9        30.19F
INDIANAPOLIS   MOSUNNY   80  57  45 E7        30.17F
-EAGLE CREEK   SUNNY     80  58  46 E10G17    30.18S
KOKOMO +       SUNNY     77  59  53 E10       30.21F
MT COMFORT *+  SUNNY     77  59  53 E8        30.20S
SHELBYVILLE    SUNNY     80  61  52 E6        30.18S
ZIONSVILLE +   SUNNY     76  58  53 E6        30.21S

$$

INZ033-034-041-042-049-050-058-059-252100-
EAST CENTRAL INDIANA

CITY           SKY/WX    TMP DP  RH WIND       PRES   REMARKS
MUNCIE         SUNNY     79  58  48 E14       30.20F
RICHMOND +     SUNNY     75  59  57 NE7       30.22R

$$

INZ060-061-067>069-081>083-085>088-252100-
SOUTHWEST INDIANA

CITY           SKY/WX    TMP DP  RH WIND       PRES   REMARKS
EVANSVILLE     MOSUNNY   88  68  51 E9        30.11S
HUNTINGBURG *+ SUNNY     84  70  62 N9        30.13S

$$

INZ062-063-066-070>080-084-089>092-252100-
SOUTH CENTRAL AND SOUTHEAST INDIANA

CITY           SKY/WX    TMP DP  RH WIND       PRES   REMARKS
BEDFORD +      MOSUNNY   81  63  54 E6        30.16R
BLOOMINGTON    MOSUNNY   83  63  50 NE8       30.17R
MADISON *+     SUNNY     81  59  47 N6        30.18S
NORTH VERNON + SUNNY     79  63  57 N6        30.17F
SEYMOUR +      SUNNY     88  66  48 N5        30.16R

$$





USA.gov is the U.S. government's official web portal to all federal, state and local government web resources and services.